TVS4305 LKPR-BIKF

Flight info

Callsign TVS4305
Flight time 3h 35m
Altitude 36000
Route VENOX DCT DEKOV Y621 ESLOR M748 BOLBO DCT BUMIL DCT ATTUS DCT GUNPA DCT 63N010W DCT ING DCT NASBU
Aircraft B738/M-SDE2E3FGHIRWXY/LB1

Departure

Time 2026-05-05 16:22
Airport Václav Havel Airport Prague (LKPR)

Arrival

Time 2026-05-05 19:57
Airport Keflavik International Airport (BIKF)
Time Latitude Longitude Altitude Speed Heading
2026-05-05 16:04 50.10641 14.25977 1173 ft 0 kts 124°
2026-05-05 16:14 50.10618 14.26028 1165 ft 7 kts 128°
2026-05-05 16:14 50.10541 14.25984 1173 ft 6 kts 209°
2026-05-05 16:15 50.10469 14.26039 1175 ft 7 kts 127°
2026-05-05 16:15 50.10389 14.26205 1175 ft 12 kts 127°
2026-05-05 16:16 50.10263 14.26467 1172 ft 17 kts 127°
2026-05-05 16:16 50.10122 14.26757 1181 ft 16 kts 127°
2026-05-05 16:17 50.09990 14.27029 1196 ft 15 kts 127°
2026-05-05 16:17 50.09923 14.27168 1200 ft 17 kts 127°
2026-05-05 16:18 50.09757 14.27459 1204 ft 18 kts 135°
2026-05-05 16:18 50.09672 14.27590 1206 ft 17 kts 135°
2026-05-05 16:18 50.09510 14.27838 1212 ft 16 kts 135°
2026-05-05 16:19 50.09434 14.27956 1214 ft 15 kts 135°
2026-05-05 16:19 50.09361 14.28068 1213 ft 14 kts 135°
2026-05-05 16:19 50.09221 14.28275 1211 ft 13 kts 151°
2026-05-05 16:20 50.09094 14.28138 1208 ft 13 kts 263°
2026-05-05 16:20 50.09230 14.27785 1210 ft 51 kts 307°
2026-05-05 16:21 50.10216 14.25748 1188 ft 177 kts 307°
2026-05-05 16:22 50.12631 14.20763 3451 ft 191 kts 308°
2026-05-05 16:22 50.14173 14.17537 4951 ft 189 kts 307°
2026-05-05 16:23 50.15947 14.13863 5355 ft 230 kts 307°
2026-05-05 16:23 50.16944 14.11802 5532 ft 247 kts 307°
2026-05-05 16:23 50.19102 14.07375 6235 ft 266 kts 308°
2026-05-05 16:24 50.20256 14.05013 6287 ft 285 kts 308°
2026-05-05 16:24 50.21494 14.02510 6729 ft 288 kts 308°
2026-05-05 16:24 50.24150 13.98032 8171 ft 288 kts 330°
2026-05-05 16:25 50.26087 13.97067 8769 ft 294 kts 352°
2026-05-05 16:25 50.30193 13.96776 9947 ft 301 kts 357°
2026-05-05 16:25 50.32307 13.96819 10496 ft 306 kts
2026-05-05 16:26 50.36624 13.98720 10931 ft 341 kts 25°
2026-05-05 16:26 50.41140 14.02199 11253 ft 378 kts 26°
2026-05-05 16:27 50.43542 14.04082 11364 ft 395 kts 26°
2026-05-05 16:27 50.46048 14.06046 11522 ft 409 kts 26°
2026-05-05 16:27 50.48612 14.08045 11904 ft 415 kts 26°
2026-05-05 16:27 50.51171 14.10033 12397 ft 417 kts 26°
2026-05-05 16:28 50.53794 14.12056 12935 ft 420 kts 24°
2026-05-05 16:28 50.56573 14.13674 13453 ft 422 kts 14°
2026-05-05 16:28 50.59465 14.14536 13952 ft 424 kts
2026-05-05 16:28 50.62391 14.15184 14459 ft 426 kts
2026-05-05 16:29 50.65333 14.15822 14963 ft 428 kts
2026-05-05 16:29 50.68298 14.16482 15435 ft 431 kts
2026-05-05 16:29 50.71278 14.17172 15914 ft 434 kts
2026-05-05 16:29 50.74268 14.17880 16413 ft 436 kts
2026-05-05 16:30 50.77286 14.18603 16861 ft 440 kts
2026-05-05 16:30 50.80327 14.19336 17291 ft 444 kts
2026-05-05 16:30 50.83391 14.20075 17783 ft 446 kts
2026-05-05 16:30 50.86459 14.20816 18222 ft 448 kts
2026-05-05 16:31 50.89565 14.21365 18578 ft 450 kts
2026-05-05 16:31 50.92695 14.21153 18950 ft 451 kts 350°
2026-05-05 16:31 50.95794 14.20374 19353 ft 452 kts 348°
2026-05-05 16:31 50.98918 14.19594 19731 ft 455 kts 349°
2026-05-05 16:32 51.02062 14.18864 20101 ft 458 kts 348°
2026-05-05 16:32 51.05146 14.17614 20474 ft 457 kts 337°
2026-05-05 16:32 51.08018 14.15501 20859 ft 455 kts 327°
2026-05-05 16:32 51.10614 14.12656 21217 ft 453 kts 317°
2026-05-05 16:33 51.12975 14.09335 21580 ft 454 kts 315°
2026-05-05 16:33 51.15328 14.05965 21925 ft 456 kts 315°
2026-05-05 16:33 51.17704 14.02587 22259 ft 458 kts 316°
2026-05-05 16:33 51.20088 13.99236 22581 ft 460 kts 316°
2026-05-05 16:34 51.22491 13.95889 22909 ft 462 kts 316°
2026-05-05 16:34 51.24942 13.92484 23238 ft 464 kts 316°
2026-05-05 16:34 51.27382 13.89086 23533 ft 465 kts 316°
2026-05-05 16:34 51.29825 13.85676 23814 ft 467 kts 316°
2026-05-05 16:35 51.32271 13.82254 24090 ft 468 kts 316°
2026-05-05 16:35 51.34723 13.78816 24363 ft 469 kts 316°
2026-05-05 16:35 51.37180 13.75366 24637 ft 470 kts 316°
2026-05-05 16:35 51.39642 13.71900 24888 ft 471 kts 315°
2026-05-05 16:36 51.42110 13.68430 25174 ft 472 kts 315°
2026-05-05 16:36 51.44568 13.64968 25564 ft 469 kts 315°
2026-05-05 16:36 51.47013 13.61519 26009 ft 466 kts 315°
2026-05-05 16:36 51.49444 13.58083 26413 ft 464 kts 315°
2026-05-05 16:37 51.51866 13.54653 26761 ft 463 kts 315°
2026-05-05 16:37 51.53471 13.52377 26981 ft 463 kts 315°
2026-05-05 16:37 51.56664 13.47842 27495 ft 461 kts 315°
2026-05-05 16:37 51.59076 13.44410 27903 ft 459 kts 314°
2026-05-05 16:38 51.60659 13.42156 28152 ft 458 kts 314°
2026-05-05 16:38 51.63044 13.38755 28507 ft 458 kts 314°
2026-05-05 16:38 51.66208 13.34238 28990 ft 456 kts 314°
2026-05-05 16:38 51.67811 13.31943 29263 ft 455 kts 314°
2026-05-05 16:39 51.70169 13.28558 29636 ft 453 kts 314°
2026-05-05 16:39 51.72489 13.25220 29977 ft 452 kts 314°
2026-05-05 16:39 51.74836 13.21836 30278 ft 451 kts 313°
2026-05-05 16:39 51.77175 13.18463 30590 ft 450 kts 313°
2026-05-05 16:40 51.79505 13.15099 30884 ft 448 kts 313°
2026-05-05 16:40 51.81861 13.11778 31177 ft 448 kts 315°
2026-05-05 16:40 51.84249 13.08531 31479 ft 447 kts 315°
2026-05-05 16:40 51.86640 13.05320 31784 ft 446 kts 315°
2026-05-05 16:41 51.89033 13.02115 32056 ft 445 kts 315°
2026-05-05 16:41 51.91416 12.98911 32296 ft 445 kts 315°
2026-05-05 16:41 51.93798 12.95693 32580 ft 444 kts 315°
2026-05-05 16:41 51.96161 12.92483 32864 ft 443 kts 315°
2026-05-05 16:42 51.98517 12.89272 33126 ft 442 kts 315°
2026-05-05 16:42 52.00835 12.86103 33357 ft 442 kts 315°
2026-05-05 16:42 52.03182 12.82889 33607 ft 441 kts 314°
2026-05-05 16:42 52.05524 12.79676 33864 ft 439 kts 314°
2026-05-05 16:43 52.07862 12.76462 34052 ft 439 kts 314°
2026-05-05 16:43 52.10203 12.73241 34219 ft 439 kts 314°
2026-05-05 16:43 52.12534 12.70030 34407 ft 439 kts 314°
2026-05-05 16:43 52.14864 12.66818 34603 ft 438 kts 314°
2026-05-05 16:44 52.17190 12.63604 34769 ft 438 kts 314°
2026-05-05 16:44 52.19513 12.60389 34930 ft 438 kts 314°
2026-05-05 16:44 52.21832 12.57177 35104 ft 438 kts 314°
2026-05-05 16:44 52.24151 12.53961 35296 ft 437 kts 314°
2026-05-05 16:45 52.26465 12.50747 35465 ft 436 kts 314°
2026-05-05 16:45 52.28750 12.47568 35607 ft 436 kts 314°
2026-05-05 16:45 52.31065 12.44344 35778 ft 436 kts 314°
2026-05-05 16:45 52.33375 12.41122 35847 ft 437 kts 314°
2026-05-05 16:46 52.38005 12.34647 35851 ft 437 kts 314°
2026-05-05 16:46 52.42607 12.28196 35859 ft 434 kts 314°
2026-05-05 16:47 52.47192 12.21751 35859 ft 432 kts 314°
2026-05-05 16:47 52.51750 12.15324 35864 ft 431 kts 314°
2026-05-05 16:48 52.56292 12.08901 35863 ft 430 kts 314°
2026-05-05 16:48 52.60817 12.02483 35864 ft 429 kts 314°
2026-05-05 16:49 52.65343 11.96046 35871 ft 429 kts 314°
2026-05-05 16:49 52.69864 11.89596 35873 ft 430 kts 313°
2026-05-05 16:50 52.74388 11.83126 35875 ft 430 kts 313°
2026-05-05 16:50 52.78918 11.76628 35876 ft 431 kts 313°
2026-05-05 16:51 52.83440 11.70123 35875 ft 431 kts 313°
2026-05-05 16:51 52.88133 11.63352 35877 ft 432 kts 313°
2026-05-05 16:52 52.92507 11.57023 35879 ft 433 kts 313°
2026-05-05 16:52 52.97048 11.50434 35883 ft 434 kts 313°
2026-05-05 16:53 53.01588 11.43829 35881 ft 434 kts 313°
2026-05-05 16:53 53.06138 11.37187 35884 ft 435 kts 313°
2026-05-05 16:54 53.10663 11.30497 35881 ft 433 kts 309°
2026-05-05 16:54 53.14258 11.22664 35894 ft 423 kts 296°
2026-05-05 16:55 53.17241 11.14218 35875 ft 422 kts 296°
2026-05-05 16:55 53.20214 11.05773 35886 ft 422 kts 296°
2026-05-05 16:56 53.23185 10.97381 35894 ft 422 kts 296°
2026-05-05 16:56 53.26180 10.88939 35891 ft 422 kts 296°
2026-05-05 16:57 53.29170 10.80502 35896 ft 422 kts 296°
2026-05-05 16:57 53.32155 10.72046 35899 ft 421 kts 296°
2026-05-05 16:58 53.35110 10.63643 35899 ft 422 kts 296°
2026-05-05 16:58 53.38102 10.55105 35907 ft 422 kts 296°
2026-05-05 16:59 53.41046 10.46676 35900 ft 422 kts 296°
2026-05-05 16:59 53.44013 10.38155 35908 ft 422 kts 296°
2026-05-05 17:00 53.46971 10.29629 35909 ft 423 kts 296°
2026-05-05 17:00 53.49924 10.21087 35912 ft 423 kts 296°
2026-05-05 17:01 53.52873 10.12528 35917 ft 423 kts 296°
2026-05-05 17:01 53.55822 10.03943 35912 ft 424 kts 296°
2026-05-05 17:02 53.58761 9.95354 35904 ft 423 kts 296°
2026-05-05 17:02 53.61685 9.86778 35913 ft 421 kts 296°
2026-05-05 17:03 53.64574 9.78272 35920 ft 419 kts 296°
2026-05-05 17:03 53.67481 9.69688 35912 ft 418 kts 296°
2026-05-05 17:04 53.70342 9.61211 35909 ft 418 kts 296°
2026-05-05 17:04 53.73213 9.52676 35915 ft 418 kts 296°
2026-05-05 17:05 53.76082 9.44109 35914 ft 419 kts 296°
2026-05-05 17:05 53.78956 9.35500 35913 ft 420 kts 295°
2026-05-05 17:06 53.81830 9.26865 35917 ft 422 kts 295°
2026-05-05 17:06 53.84706 9.18193 35914 ft 423 kts 295°
2026-05-05 17:07 53.87584 9.09481 35922 ft 425 kts 295°
2026-05-05 17:07 53.90469 9.00717 35916 ft 426 kts 295°
2026-05-05 17:08 53.93355 8.91918 35918 ft 427 kts 295°
2026-05-05 17:08 53.96219 8.83158 35907 ft 427 kts 295°
2026-05-05 17:09 53.99100 8.74315 35914 ft 428 kts 295°
2026-05-05 17:09 54.01971 8.65470 35915 ft 427 kts 295°
2026-05-05 17:10 54.04838 8.56600 35921 ft 427 kts 295°
2026-05-05 17:10 54.07698 8.47723 35917 ft 428 kts 295°
2026-05-05 17:11 54.10534 8.38888 35925 ft 428 kts 295°
2026-05-05 17:11 54.13380 8.29986 35925 ft 428 kts 295°
2026-05-05 17:12 54.16221 8.21064 35930 ft 427 kts 295°
2026-05-05 17:12 54.19056 8.12138 35929 ft 427 kts 295°
2026-05-05 17:13 54.21882 8.03200 35940 ft 427 kts 295°
2026-05-05 17:13 54.24704 7.94243 35938 ft 428 kts 295°
2026-05-05 17:14 54.27519 7.85272 35940 ft 428 kts 295°
2026-05-05 17:14 54.30316 7.76330 35939 ft 429 kts 294°
2026-05-05 17:15 54.33134 7.67288 35945 ft 430 kts 294°
2026-05-05 17:15 54.35949 7.58220 35944 ft 431 kts 294°
2026-05-05 17:16 54.38766 7.49111 35954 ft 432 kts 294°
2026-05-05 17:16 54.41571 7.40007 35950 ft 434 kts 294°
2026-05-05 17:17 54.43934 7.32306 35954 ft 435 kts 295°
2026-05-05 17:17 54.46735 7.23146 35956 ft 436 kts 294°
2026-05-05 17:18 54.49556 7.13893 35954 ft 437 kts 295°
2026-05-05 17:18 54.52371 7.04614 35956 ft 437 kts 295°
2026-05-05 17:19 54.55171 6.95356 35960 ft 439 kts 295°
2026-05-05 17:19 54.57989 6.86001 35961 ft 439 kts 295°
2026-05-05 17:20 54.60800 6.76629 35962 ft 440 kts 295°
2026-05-05 17:20 54.63604 6.67246 35960 ft 440 kts 295°
2026-05-05 17:21 54.66405 6.57832 35965 ft 440 kts 295°
2026-05-05 17:22 54.70572 6.43758 35966 ft 440 kts 295°
2026-05-05 17:22 54.73354 6.34316 35966 ft 440 kts 295°
2026-05-05 17:23 54.76135 6.24836 35974 ft 441 kts 295°
2026-05-05 17:23 54.78896 6.15392 35970 ft 441 kts 295°
2026-05-05 17:24 54.81661 6.05896 35973 ft 441 kts 295°
2026-05-05 17:24 54.84422 5.96373 35972 ft 441 kts 295°
2026-05-05 17:25 54.87174 5.86843 35977 ft 441 kts 295°
2026-05-05 17:25 54.89918 5.77304 35973 ft 441 kts 295°
2026-05-05 17:26 54.92655 5.67748 35975 ft 441 kts 295°
2026-05-05 17:26 54.95381 5.58188 35979 ft 441 kts 294°
2026-05-05 17:27 54.98104 5.48604 35973 ft 442 kts 294°
2026-05-05 17:27 54.99464 5.43808 36080 ft 441 kts 293°
2026-05-05 17:27 55.00835 5.39027 36027 ft 442 kts 295°
2026-05-05 17:28 55.03760 5.29590 35983 ft 441 kts 296°
2026-05-05 17:28 55.06678 5.20281 35969 ft 439 kts 295°
2026-05-05 17:29 55.09566 5.10910 35975 ft 437 kts 295°
2026-05-05 17:29 55.12430 5.01549 35967 ft 435 kts 295°
2026-05-05 17:30 55.15268 4.92217 35967 ft 434 kts 295°
2026-05-05 17:30 55.18089 4.82887 35990 ft 432 kts 295°
2026-05-05 17:31 55.20873 4.73643 35982 ft 431 kts 295°
2026-05-05 17:31 55.23662 4.64349 35975 ft 431 kts 294°
2026-05-05 17:32 55.26446 4.55036 35992 ft 431 kts 294°
2026-05-05 17:32 55.29227 4.45696 35976 ft 432 kts 294°
2026-05-05 17:33 55.32004 4.36333 35980 ft 432 kts 294°
2026-05-05 17:33 55.34759 4.27004 35976 ft 433 kts 294°
2026-05-05 17:34 55.37535 4.17566 35974 ft 434 kts 294°
2026-05-05 17:34 55.40307 4.08106 35970 ft 435 kts 294°
2026-05-05 17:35 55.43071 3.98632 35969 ft 435 kts 294°
2026-05-05 17:35 55.45833 3.89133 35961 ft 435 kts 294°
2026-05-05 17:36 55.48586 3.79632 35963 ft 435 kts 294°
2026-05-05 17:36 55.51599 3.70364 35957 ft 438 kts 303°
2026-05-05 17:37 55.55689 3.62392 35965 ft 441 kts 310°
2026-05-05 17:37 55.60074 3.54333 35972 ft 440 kts 310°
2026-05-05 17:38 55.64147 3.46771 35970 ft 439 kts 309°
2026-05-05 17:38 55.68335 3.38906 35975 ft 438 kts 309°
2026-05-05 17:39 55.72475 3.31079 35978 ft 438 kts 309°
2026-05-05 17:39 55.76663 3.23125 35989 ft 437 kts 309°
2026-05-05 17:40 55.80806 3.15231 35991 ft 437 kts 309°
2026-05-05 17:40 55.84948 3.07321 35999 ft 436 kts 309°
2026-05-05 17:41 55.89049 2.99459 36002 ft 436 kts 309°
2026-05-05 17:41 55.93169 2.91533 36010 ft 436 kts 309°
2026-05-05 17:42 55.97295 2.83569 36011 ft 436 kts 309°
2026-05-05 17:42 56.01407 2.75605 36016 ft 436 kts 308°
2026-05-05 17:43 56.05514 2.67623 36020 ft 436 kts 308°
2026-05-05 17:43 56.09592 2.59671 36018 ft 436 kts 308°
2026-05-05 17:44 56.13694 2.51647 36020 ft 436 kts 308°
2026-05-05 17:44 56.17787 2.43614 36022 ft 436 kts 308°
2026-05-05 17:45 56.21875 2.35563 36023 ft 436 kts 308°
2026-05-05 17:45 56.25956 2.27498 36029 ft 435 kts 308°
2026-05-05 17:46 56.30002 2.19474 36033 ft 435 kts 308°
2026-05-05 17:46 56.34065 2.11389 36036 ft 435 kts 308°
2026-05-05 17:47 56.38123 2.03283 36041 ft 434 kts 308°
2026-05-05 17:47 56.42176 1.95160 36043 ft 434 kts 308°
2026-05-05 17:48 56.46195 1.87085 36048 ft 434 kts 308°
2026-05-05 17:48 56.50226 1.78951 36051 ft 434 kts 308°
2026-05-05 17:49 56.54253 1.70798 36052 ft 433 kts 308°
2026-05-05 17:49 56.58272 1.62632 36055 ft 433 kts 308°
2026-05-05 17:50 56.62262 1.54497 36059 ft 433 kts 307°
2026-05-05 17:50 56.66266 1.46309 36059 ft 433 kts 307°
2026-05-05 17:51 56.70265 1.38102 36064 ft 433 kts 307°
2026-05-05 17:51 56.74257 1.29882 36054 ft 433 kts 307°
2026-05-05 17:52 56.78210 1.21710 36067 ft 432 kts 307°
2026-05-05 17:52 56.82188 1.13460 36069 ft 432 kts 307°
2026-05-05 17:53 56.86151 1.05208 36068 ft 432 kts 307°
2026-05-05 17:53 56.90120 0.96919 36061 ft 432 kts 307°
2026-05-05 17:54 56.94075 0.88628 36078 ft 432 kts 307°
2026-05-05 17:54 56.97996 0.80379 36068 ft 431 kts 307°
2026-05-05 17:55 57.01934 0.72067 36078 ft 431 kts 307°
2026-05-05 17:55 57.05873 0.63724 36078 ft 431 kts 307°
2026-05-05 17:56 57.09803 0.55370 36080 ft 431 kts 307°
2026-05-05 17:56 57.13720 0.47015 36084 ft 431 kts 307°
2026-05-05 17:57 57.17637 0.38632 36085 ft 431 kts 307°
2026-05-05 17:57 57.21511 0.30307 36088 ft 431 kts 307°
2026-05-05 17:58 57.25405 0.21913 36093 ft 430 kts 307°
2026-05-05 17:58 57.29300 0.13486 36089 ft 430 kts 307°
2026-05-05 17:59 57.33181 0.05059 36091 ft 430 kts 307°
2026-05-05 17:59 57.37056 -0.03386 36090 ft 430 kts 306°
2026-05-05 18:00 57.40924 -0.11841 36095 ft 429 kts 306°
2026-05-05 18:00 57.44754 -0.20247 36094 ft 429 kts 306°
2026-05-05 18:01 57.48599 -0.28717 36094 ft 428 kts 306°
2026-05-05 18:01 57.52436 -0.37199 36099 ft 428 kts 306°
2026-05-05 18:02 57.56270 -0.45704 36100 ft 428 kts 306°
2026-05-05 18:02 57.60092 -0.54213 36104 ft 428 kts 306°
2026-05-05 18:03 57.63908 -0.62741 36100 ft 428 kts 306°
2026-05-05 18:03 57.67716 -0.71282 36104 ft 428 kts 306°
2026-05-05 18:04 57.71498 -0.79793 36105 ft 428 kts 306°
2026-05-05 18:04 57.75297 -0.88366 36107 ft 427 kts 306°
2026-05-05 18:05 57.79082 -0.96951 36108 ft 427 kts 306°
2026-05-05 18:05 57.82245 -1.04147 36104 ft 427 kts 306°
2026-05-05 18:06 57.85990 -1.12695 36107 ft 426 kts 306°
2026-05-05 18:06 57.89751 -1.21307 36111 ft 426 kts 305°
2026-05-05 18:07 57.93498 -1.29922 36109 ft 426 kts 305°
2026-05-05 18:07 57.97243 -1.38560 36112 ft 425 kts 305°
2026-05-05 18:08 58.00978 -1.47206 36112 ft 425 kts 305°
2026-05-05 18:08 58.04702 -1.55862 36113 ft 425 kts 305°
2026-05-05 18:09 58.08426 -1.64554 36113 ft 425 kts 305°
2026-05-05 18:09 58.12114 -1.73188 36117 ft 425 kts 305°
2026-05-05 18:10 58.15826 -1.81908 36117 ft 425 kts 305°
2026-05-05 18:10 58.19532 -1.90648 36116 ft 425 kts 304°
2026-05-05 18:11 58.23229 -1.99401 36116 ft 424 kts 304°
2026-05-05 18:11 58.26912 -2.08153 36119 ft 424 kts 304°
2026-05-05 18:12 58.30569 -2.16872 36120 ft 424 kts 304°
2026-05-05 18:12 58.34242 -2.25664 36123 ft 424 kts 304°
2026-05-05 18:13 58.37905 -2.34463 36118 ft 424 kts 304°
2026-05-05 18:13 58.41561 -2.43279 36124 ft 424 kts 304°
2026-05-05 18:14 58.45216 -2.52129 36123 ft 423 kts 304°
2026-05-05 18:14 58.48861 -2.60987 36125 ft 423 kts 304°
2026-05-05 18:15 58.52495 -2.69852 36130 ft 423 kts 304°
2026-05-05 18:15 58.56120 -2.78724 36135 ft 423 kts 304°
2026-05-05 18:16 58.59719 -2.87568 36131 ft 423 kts 304°
2026-05-05 18:16 58.63334 -2.96481 36133 ft 423 kts 304°
2026-05-05 18:17 58.66940 -3.05414 36126 ft 423 kts 304°
2026-05-05 18:17 58.70546 -3.14374 36130 ft 423 kts 304°
2026-05-05 18:18 58.74141 -3.23341 36132 ft 423 kts 304°
2026-05-05 18:18 58.77728 -3.32320 36123 ft 423 kts 303°
2026-05-05 18:19 58.81311 -3.41327 36126 ft 423 kts 303°
2026-05-05 18:19 58.84861 -3.50283 36131 ft 423 kts 303°
2026-05-05 18:20 58.88428 -3.59319 36133 ft 423 kts 303°
2026-05-05 18:20 58.91989 -3.68374 36134 ft 423 kts 303°
2026-05-05 18:21 58.95547 -3.77450 36135 ft 423 kts 303°
2026-05-05 18:21 58.99107 -3.86574 36139 ft 424 kts 303°
2026-05-05 18:22 59.02658 -3.95709 36139 ft 424 kts 303°
2026-05-05 18:22 59.06205 -4.04868 36143 ft 424 kts 303°
2026-05-05 18:23 59.09731 -4.14007 36142 ft 425 kts 303°
2026-05-05 18:23 59.13269 -4.23218 36141 ft 425 kts 303°
2026-05-05 18:24 59.16806 -4.32456 36141 ft 425 kts 303°
2026-05-05 18:24 59.20339 -4.41722 36142 ft 425 kts 303°
2026-05-05 18:25 59.23863 -4.50999 36142 ft 425 kts 303°
2026-05-05 18:25 59.27386 -4.60313 36142 ft 425 kts 303°
2026-05-05 18:26 59.30874 -4.69573 36142 ft 425 kts 303°
2026-05-05 18:26 59.34378 -4.78911 36143 ft 425 kts 303°
2026-05-05 18:27 59.37875 -4.88266 36143 ft 425 kts 303°
2026-05-05 18:27 59.41362 -4.97631 36142 ft 425 kts 303°
2026-05-05 18:28 59.46577 -5.11702 36143 ft 424 kts 303°
2026-05-05 18:28 59.50017 -5.21037 36145 ft 424 kts 303°
2026-05-05 18:29 59.53476 -5.30461 36145 ft 424 kts 302°
2026-05-05 18:29 59.56922 -5.39886 36145 ft 423 kts 302°
2026-05-05 18:30 59.60355 -5.49308 36149 ft 423 kts 302°
2026-05-05 18:30 59.63770 -5.58718 36148 ft 423 kts 302°
2026-05-05 18:31 59.67194 -5.68195 36149 ft 423 kts 302°
2026-05-05 18:31 59.70605 -5.77676 36142 ft 423 kts 302°
2026-05-05 18:32 59.74010 -5.87176 36142 ft 422 kts 302°
2026-05-05 18:32 59.77385 -5.96630 36157 ft 422 kts 302°
2026-05-05 18:33 59.80769 -6.06150 36156 ft 422 kts 302°
2026-05-05 18:33 59.84149 -6.15694 36156 ft 422 kts 302°
2026-05-05 18:34 59.87517 -6.25245 36155 ft 422 kts 302°
2026-05-05 18:34 59.90879 -6.34818 36158 ft 422 kts 302°
2026-05-05 18:35 59.94236 -6.44417 36151 ft 422 kts 302°
2026-05-05 18:35 59.97588 -6.54038 36155 ft 422 kts 302°
2026-05-05 18:36 60.00911 -6.63619 36154 ft 421 kts 302°
2026-05-05 18:36 60.04249 -6.73281 36153 ft 421 kts 302°
2026-05-05 18:37 60.07572 -6.82939 36158 ft 422 kts 302°
2026-05-05 18:37 60.10892 -6.92629 36158 ft 422 kts 302°
2026-05-05 18:38 60.14203 -7.02332 36155 ft 421 kts 302°
2026-05-05 18:38 60.17489 -7.12004 36160 ft 421 kts 302°
2026-05-05 18:39 60.20784 -7.21740 36156 ft 421 kts 302°
2026-05-05 18:39 60.24070 -7.31491 36156 ft 420 kts 302°
2026-05-05 18:40 60.27347 -7.41257 36161 ft 420 kts 301°
2026-05-05 18:40 60.30618 -7.51047 36163 ft 420 kts 301°
2026-05-05 18:41 60.33878 -7.60848 36167 ft 421 kts 301°
2026-05-05 18:41 60.37111 -7.70597 36162 ft 420 kts 301°
2026-05-05 18:42 60.40356 -7.80431 36163 ft 420 kts 301°
2026-05-05 18:42 60.43614 -7.90345 36164 ft 420 kts 301°
2026-05-05 18:43 60.46845 -8.00221 36165 ft 420 kts 301°
2026-05-05 18:43 60.50050 -8.10055 36166 ft 420 kts 301°
2026-05-05 18:44 60.53267 -8.19972 36165 ft 420 kts 301°
2026-05-05 18:44 60.56467 -8.29882 36167 ft 419 kts 301°
2026-05-05 18:45 60.59661 -8.39813 36168 ft 419 kts 301°
2026-05-05 18:45 60.62846 -8.49758 36167 ft 419 kts 301°
2026-05-05 18:46 60.66023 -8.59722 36167 ft 418 kts 301°
2026-05-05 18:46 60.69166 -8.69615 36169 ft 418 kts 301°
2026-05-05 18:47 60.72216 -8.79718 36164 ft 417 kts 296°
2026-05-05 18:47 60.74762 -8.90358 36172 ft 417 kts 294°
2026-05-05 18:48 60.77241 -9.01081 36168 ft 417 kts 294°
2026-05-05 18:48 60.79737 -9.11810 36169 ft 417 kts 294°
2026-05-05 18:49 60.82240 -9.22533 36169 ft 417 kts 294°
2026-05-05 18:49 60.84742 -9.33277 36168 ft 417 kts 294°
2026-05-05 18:50 60.87232 -9.44026 36170 ft 417 kts 294°
2026-05-05 18:50 60.89706 -9.54753 36171 ft 417 kts 294°
2026-05-05 18:51 60.92182 -9.65550 36171 ft 418 kts 294°
2026-05-05 18:51 60.94652 -9.76372 36173 ft 418 kts 294°
2026-05-05 18:52 60.97115 -9.87215 36173 ft 418 kts 294°
2026-05-05 18:52 60.99154 -9.96235 36175 ft 418 kts 294°
2026-05-05 18:53 61.01814 -10.06921 36178 ft 419 kts 297°
2026-05-05 18:53 61.04701 -10.17409 36174 ft 420 kts 298°
2026-05-05 18:54 61.07592 -10.27905 36172 ft 421 kts 298°
2026-05-05 18:54 61.10465 -10.38458 36172 ft 421 kts 297°
2026-05-05 18:55 61.13319 -10.49045 36171 ft 421 kts 297°
2026-05-05 18:55 61.16146 -10.59596 36174 ft 422 kts 297°
2026-05-05 18:56 61.18986 -10.70246 36169 ft 422 kts 297°
2026-05-05 18:56 61.21820 -10.80926 36169 ft 422 kts 297°
2026-05-05 18:57 61.24645 -10.91617 36173 ft 422 kts 297°
2026-05-05 18:57 61.27464 -11.02344 36176 ft 422 kts 297°
2026-05-05 18:58 61.30257 -11.13020 36171 ft 422 kts 297°
2026-05-05 18:58 61.33074 -11.23839 36172 ft 423 kts 297°
2026-05-05 18:59 61.35853 -11.34560 36172 ft 423 kts 297°
2026-05-05 18:59 61.38637 -11.45361 36169 ft 423 kts 297°
2026-05-05 19:00 61.41419 -11.56198 36184 ft 423 kts 297°
2026-05-05 19:00 61.44190 -11.67049 36177 ft 423 kts 297°
2026-05-05 19:01 61.46950 -11.77909 36176 ft 423 kts 297°
2026-05-05 19:01 61.49701 -11.88791 36180 ft 423 kts 297°
2026-05-05 19:02 61.52445 -11.99698 36174 ft 423 kts 297°
2026-05-05 19:02 61.55181 -12.10623 36190 ft 423 kts 297°
2026-05-05 19:03 61.57894 -12.21512 36186 ft 423 kts 296°
2026-05-05 19:03 61.60617 -12.32492 36184 ft 423 kts 296°
2026-05-05 19:04 61.63329 -12.43488 36176 ft 423 kts 296°
2026-05-05 19:04 61.66030 -12.54487 36183 ft 423 kts 296°
2026-05-05 19:05 61.68719 -12.65498 36181 ft 423 kts 296°
2026-05-05 19:05 61.71402 -12.76541 36186 ft 423 kts 296°
2026-05-05 19:06 61.74059 -12.87532 36183 ft 423 kts 296°
2026-05-05 19:06 61.76727 -12.98620 36181 ft 423 kts 296°
2026-05-05 19:07 61.79386 -13.09729 36183 ft 424 kts 296°
2026-05-05 19:07 61.82035 -13.20861 36184 ft 424 kts 296°
2026-05-05 19:08 61.84682 -13.32035 36186 ft 424 kts 296°
2026-05-05 19:08 61.87321 -13.43228 36181 ft 425 kts 296°
2026-05-05 19:09 61.89950 -13.54437 36186 ft 424 kts 296°
2026-05-05 19:09 61.92568 -13.65662 36188 ft 424 kts 296°
2026-05-05 19:10 61.95179 -13.76912 36189 ft 425 kts 296°
2026-05-05 19:10 61.97768 -13.88130 36190 ft 425 kts 295°
2026-05-05 19:11 62.00366 -13.99450 36190 ft 425 kts 295°
2026-05-05 19:11 62.02957 -14.10802 36194 ft 426 kts 295°
2026-05-05 19:12 62.05538 -14.22155 36191 ft 426 kts 295°
2026-05-05 19:12 62.08112 -14.33544 36196 ft 426 kts 295°
2026-05-05 19:13 62.10678 -14.44956 36194 ft 427 kts 295°
2026-05-05 19:13 62.13238 -14.56402 36198 ft 427 kts 295°
2026-05-05 19:14 62.15788 -14.67870 36193 ft 427 kts 295°
2026-05-05 19:14 62.18314 -14.79292 36192 ft 427 kts 295°
2026-05-05 19:15 62.20846 -14.90804 36195 ft 427 kts 295°
2026-05-05 19:15 62.23369 -15.02334 36193 ft 427 kts 295°
2026-05-05 19:16 62.25881 -15.13881 36196 ft 427 kts 295°
2026-05-05 19:16 62.28382 -15.25432 36194 ft 426 kts 295°
2026-05-05 19:17 62.30876 -15.37024 36194 ft 426 kts 294°
2026-05-05 19:17 62.33339 -15.48532 36193 ft 426 kts 294°
2026-05-05 19:18 62.35811 -15.60144 36196 ft 426 kts 294°
2026-05-05 19:18 62.38276 -15.71791 36192 ft 427 kts 294°
2026-05-05 19:19 62.40730 -15.83455 36194 ft 427 kts 294°
2026-05-05 19:19 62.43178 -15.95151 36195 ft 427 kts 294°
2026-05-05 19:20 62.45612 -16.06844 36200 ft 427 kts 294°
2026-05-05 19:20 62.48021 -16.18487 36199 ft 427 kts 294°
2026-05-05 19:21 62.50440 -16.30241 36199 ft 427 kts 294°
2026-05-05 19:21 62.52849 -16.42011 36194 ft 427 kts 294°
2026-05-05 19:22 62.55247 -16.53794 36196 ft 428 kts 294°
2026-05-05 19:22 62.57639 -16.65625 36199 ft 428 kts 294°
2026-05-05 19:23 62.60019 -16.77465 36200 ft 427 kts 294°
2026-05-05 19:23 62.62390 -16.89315 36197 ft 428 kts 294°
2026-05-05 19:24 62.64741 -17.01140 36195 ft 429 kts 294°
2026-05-05 19:24 62.67096 -17.13059 36195 ft 429 kts 293°
2026-05-05 19:25 62.69443 -17.25005 36196 ft 429 kts 293°
2026-05-05 19:25 62.71784 -17.36990 36194 ft 430 kts 293°
2026-05-05 19:26 62.74113 -17.48995 36193 ft 430 kts 293°
2026-05-05 19:26 62.76434 -17.61017 36200 ft 430 kts 293°
2026-05-05 19:27 62.78744 -17.73061 36197 ft 430 kts 293°
2026-05-05 19:27 62.81045 -17.85128 36198 ft 430 kts 293°
2026-05-05 19:28 62.83320 -17.97126 36186 ft 430 kts 293°
2026-05-05 19:28 62.85601 -18.09238 36199 ft 430 kts 293°
2026-05-05 19:29 62.87871 -18.21366 36194 ft 430 kts 292°
2026-05-05 19:29 62.90134 -18.33528 36194 ft 430 kts 292°
2026-05-05 19:30 62.92385 -18.45696 36192 ft 431 kts 292°
2026-05-05 19:30 62.94631 -18.57921 36186 ft 431 kts 292°
2026-05-05 19:31 62.96868 -18.70150 36191 ft 431 kts 292°
2026-05-05 19:31 62.99639 -18.81705 36185 ft 431 kts 305°
2026-05-05 19:32 63.03190 -18.92400 36189 ft 431 kts 306°
2026-05-05 19:32 63.06683 -19.02918 36098 ft 434 kts 306°
2026-05-05 19:33 63.08475 -19.08368 35336 ft 440 kts 305°
2026-05-05 19:33 63.10258 -19.13826 34680 ft 437 kts 305°
2026-05-05 19:33 63.12026 -19.19265 33980 ft 435 kts 305°
2026-05-05 19:33 63.13764 -19.24633 33206 ft 433 kts 305°
2026-05-05 19:34 63.15512 -19.30047 32441 ft 431 kts 304°
2026-05-05 19:34 63.17195 -19.35274 31717 ft 428 kts 304°
2026-05-05 19:34 63.18916 -19.40629 30995 ft 425 kts 304°
2026-05-05 19:35 63.22317 -19.51245 29422 ft 419 kts 303°
2026-05-05 19:35 63.23993 -19.56497 28577 ft 416 kts 303°
2026-05-05 19:35 63.25658 -19.61723 27757 ft 414 kts 303°
2026-05-05 19:35 63.27312 -19.66930 26953 ft 412 kts 303°
2026-05-05 19:36 63.28959 -19.72125 26178 ft 409 kts 303°
2026-05-05 19:36 63.30591 -19.77286 25418 ft 407 kts 302°
2026-05-05 19:36 63.32212 -19.82420 24679 ft 404 kts 302°
2026-05-05 19:36 63.33818 -19.87522 23963 ft 401 kts 302°
2026-05-05 19:37 63.35413 -19.92596 23133 ft 399 kts 302°
2026-05-05 19:37 63.36998 -19.97650 22278 ft 396 kts 302°
2026-05-05 19:37 63.38566 -20.02666 21451 ft 393 kts 302°
2026-05-05 19:37 63.39617 -20.06035 20900 ft 391 kts 302°
2026-05-05 19:38 63.41164 -20.11004 20099 ft 389 kts 302°
2026-05-05 19:38 63.42702 -20.15949 19412 ft 385 kts 302°
2026-05-05 19:38 63.44215 -20.20824 18783 ft 380 kts 302°
2026-05-05 19:38 63.45715 -20.25666 18106 ft 376 kts 302°
2026-05-05 19:39 63.47193 -20.30452 17480 ft 371 kts 302°
2026-05-05 19:39 63.48645 -20.35159 16914 ft 365 kts 302°
2026-05-05 19:39 63.50074 -20.39808 16379 ft 361 kts 302°
2026-05-05 19:39 63.51494 -20.44434 15844 ft 359 kts 302°
2026-05-05 19:40 63.52895 -20.49008 15457 ft 353 kts 302°
2026-05-05 19:40 63.54269 -20.53504 15071 ft 358 kts 302°
2026-05-05 19:40 63.55635 -20.58221 14688 ft 362 kts 296°
2026-05-05 19:40 63.56469 -20.63605 14312 ft 360 kts 284°
2026-05-05 19:41 63.57104 -20.69045 13936 ft 360 kts 284°
2026-05-05 19:41 63.57738 -20.74394 13503 ft 356 kts 284°
2026-05-05 19:41 63.58388 -20.79799 13068 ft 350 kts 285°
2026-05-05 19:41 63.59013 -20.84944 12659 ft 343 kts 285°
2026-05-05 19:42 63.59637 -20.90059 12248 ft 337 kts 285°
2026-05-05 19:42 63.60249 -20.95078 11944 ft 329 kts 285°
2026-05-05 19:42 63.60844 -20.99970 11663 ft 321 kts 286°
2026-05-05 19:42 63.61427 -21.04752 11394 ft 314 kts 286°
2026-05-05 19:43 63.61995 -21.09445 11130 ft 308 kts 286°
2026-05-05 19:43 63.62549 -21.14045 10856 ft 302 kts 286°
2026-05-05 19:43 63.63091 -21.18568 10582 ft 297 kts 287°
2026-05-05 19:43 63.63621 -21.23021 10330 ft 293 kts 286°
2026-05-05 19:44 63.64141 -21.27414 10062 ft 289 kts 287°
2026-05-05 19:44 63.64653 -21.31752 9775 ft 285 kts 287°
2026-05-05 19:44 63.65158 -21.36041 9494 ft 282 kts 287°
2026-05-05 19:44 63.65658 -21.40288 9213 ft 279 kts 287°
2026-05-05 19:45 63.66151 -21.44484 8934 ft 276 kts 287°
2026-05-05 19:45 63.66639 -21.48645 8662 ft 274 kts 287°
2026-05-05 19:45 63.67119 -21.52772 8387 ft 271 kts 286°
2026-05-05 19:45 63.67595 -21.56871 8118 ft 270 kts 287°
2026-05-05 19:46 63.68067 -21.60950 7841 ft 268 kts 287°
2026-05-05 19:46 63.68533 -21.64983 7581 ft 266 kts 287°
2026-05-05 19:46 63.68978 -21.68855 7334 ft 264 kts 287°
2026-05-05 19:46 63.69440 -21.72861 7064 ft 263 kts 286°
2026-05-05 19:47 63.69896 -21.76847 6805 ft 262 kts 286°
2026-05-05 19:47 63.70348 -21.80813 6535 ft 261 kts 287°
2026-05-05 19:47 63.70800 -21.84765 6278 ft 260 kts 286°
2026-05-05 19:47 63.71249 -21.88717 5996 ft 259 kts 286°
2026-05-05 19:48 63.71695 -21.92648 5728 ft 258 kts 287°
2026-05-05 19:48 63.72140 -21.96568 5460 ft 258 kts 286°
2026-05-05 19:48 63.72581 -22.00474 5202 ft 257 kts 286°
2026-05-05 19:48 63.73017 -22.04376 4931 ft 256 kts 286°
2026-05-05 19:49 63.73454 -22.08269 4663 ft 256 kts 286°
2026-05-05 19:49 63.73889 -22.12152 4388 ft 255 kts 287°
2026-05-05 19:49 63.74320 -22.16022 4106 ft 253 kts 287°
2026-05-05 19:49 63.74695 -22.19410 3878 ft 252 kts 286°
2026-05-05 19:50 63.75122 -22.23245 3619 ft 251 kts 287°
2026-05-05 19:50 63.75542 -22.27022 3502 ft 244 kts 287°
2026-05-05 19:50 63.75941 -22.30651 3470 ft 232 kts 287°
2026-05-05 19:50 63.76323 -22.34137 3480 ft 226 kts 287°
2026-05-05 19:51 63.76696 -22.37528 3482 ft 225 kts 287°
2026-05-05 19:51 63.77176 -22.40914 3324 ft 230 kts 294°
2026-05-05 19:51 63.77739 -22.44283 3108 ft 228 kts 294°
2026-05-05 19:51 63.78295 -22.47621 2882 ft 226 kts 294°
2026-05-05 19:52 63.78836 -22.50923 2667 ft 223 kts 294°
2026-05-05 19:52 63.79387 -22.54115 2548 ft 210 kts 304°
2026-05-05 19:52 63.80271 -22.56548 2361 ft 196 kts 319°
2026-05-05 19:52 63.81263 -22.58549 2135 ft 188 kts 327°
2026-05-05 19:53 63.82323 -22.60116 1922 ft 176 kts 348°
2026-05-05 19:53 63.83468 -22.60391 1826 ft 159 kts
2026-05-05 19:53 63.84574 -22.60503 1797 ft 156 kts
2026-05-05 19:53 63.85631 -22.60545 1787 ft 150 kts
2026-05-05 19:54 63.86668 -22.60553 1794 ft 148 kts
2026-05-05 19:54 63.87690 -22.60552 1805 ft 147 kts
2026-05-05 19:54 63.88693 -22.60554 1797 ft 142 kts
2026-05-05 19:54 63.89697 -22.60548 1615 ft 144 kts
2026-05-05 19:55 63.90697 -22.60550 1403 ft 142 kts
2026-05-05 19:55 63.91677 -22.60548 1184 ft 139 kts
2026-05-05 19:55 63.92634 -22.60547 986 ft 137 kts
2026-05-05 19:55 63.93591 -22.60547 784 ft 139 kts
2026-05-05 19:56 63.94567 -22.60555 606 ft 140 kts
2026-05-05 19:56 63.95534 -22.60538 409 ft 137 kts
2026-05-05 19:56 63.96482 -22.60547 211 ft 135 kts
2026-05-05 19:56 63.97356 -22.60538 170 ft 113 kts
2026-05-05 19:57 63.97998 -22.60540 170 ft 70 kts
2026-05-05 19:57 63.98255 -22.60539 172 ft 42 kts
2026-05-05 19:57 63.98510 -22.60539 173 ft 25 kts
2026-05-05 19:57 63.98676 -22.60538 171 ft 23 kts
2026-05-05 19:58 63.98809 -22.60617 171 ft 20 kts 315°
2026-05-05 19:58 63.98905 -22.60833 167 ft 19 kts 315°
2026-05-05 19:58 63.98998 -22.60938 166 ft 14 kts
2026-05-05 19:58 63.99098 -22.60937 162 ft 15 kts
2026-05-05 19:59 63.99171 -22.61014 158 ft 13 kts 284°
2026-05-05 19:59 63.99174 -22.61240 153 ft 16 kts 270°
2026-05-05 19:59 63.99173 -22.61460 149 ft 12 kts 269°
2026-05-05 19:59 63.99173 -22.61634 145 ft 7 kts 270°
2026-05-05 20:00 63.99173 -22.61723 143 ft 5 kts 270°
2026-05-05 20:00 63.99173 -22.61793 142 ft 5 kts 270°
2026-05-05 20:00 63.99173 -22.61822 141 ft 2 kts 270°
2026-05-05 20:00 63.99173 -22.61852 140 ft 2 kts 270°
2026-05-05 20:01 63.99173 -22.61904 140 ft 0 kts 270°
2026-05-05 20:01 63.99173 -22.61905 140 ft 1 kts 270°
2026-05-05 20:01 63.99173 -22.61918 139 ft 0 kts 270°
2026-05-05 20:01 63.99173 -22.61923 139 ft 1 kts 270°
2026-05-05 20:02 63.99173 -22.61932 139 ft 1 kts 270°
2026-05-05 20:02 63.99173 -22.61943 139 ft 1 kts 270°
2026-05-05 20:02 63.99173 -22.61954 139 ft 1 kts 277°
2026-05-05 20:02 63.99184 -22.61979 139 ft 4 kts 330°
2026-05-05 20:03 63.99213 -22.61986 139 ft 4 kts 359°
2026-05-05 20:03 63.99241 -22.61986 139 ft 4 kts
2026-05-05 20:03 63.99268 -22.61986 139 ft 4 kts
2026-05-05 20:03 63.99295 -22.61986 139 ft 4 kts
2026-05-05 20:04 63.99324 -22.61986 139 ft 4 kts
2026-05-05 20:04 63.99354 -22.61986 139 ft 4 kts
2026-05-05 20:04 63.99382 -22.61988 139 ft 4 kts 352°
2026-05-05 20:04 63.99408 -22.62013 139 ft 4 kts 332°
2026-05-05 20:05 63.99415 -22.62066 139 ft 4 kts 253°
2026-05-05 20:05 63.99400 -22.62119 139 ft 4 kts 238°
2026-05-05 20:05 63.99386 -22.62171 139 ft 4 kts 237°
2026-05-05 20:05 63.99379 -22.62195 139 ft 0 kts 238°